Content
SEND FEEDBACK

Daily
Averages
Monthly
Summary
Iran

BOJNURD, IRAN


Home > Middle East > Iran
Elevation: 3694 feet     Latitude: 37 28N     Longitude: 057 20E

WEATHER
 
SELECT A DAY
Number of Records: 32,422;   Date Range: 5/9/03 - 8/29/14
 
SHARE

PRINT THIS DATA

[ ← Previous Day ]
WEATHER ALMANAC - AUGUST 18, 2013
[ Next Day → ]
[ °C ]   °F
Weather ElementAverageHighLow
Temperature74.6 °F87.8 °F (4:30 pm)51.8 °F (6:30 am)
Dewpoint33 °F39.2 °F (10:30 am)23 °F (4:30 pm)
Humidity23.3 %51 % (4:30 am)4 % (4:30 pm)
Barometer29.90 in29.98 in (6:30 am)29.71 in (10:30 pm)
Wind Speed1.9 mph9.2 mph (6:30 pm)
Weather ElementAverage
Visibility5.7 mi
Wind DirectionENE (63.9 °)

Weather ElementTotal
Precipitation---
Cooling Degree Days4.8 (Base 65)
Growing Degree Days19.8 (Base 50)
Averaged from 21 records on August 18, 2013
WEATHER CONDITIONS BREAKOUT
WIND DIRECTION BREAKOUT
WEATHER BY HOUR - AUGUST 18, 2013
[ °C ]   °F
Local TimeTemperatureDewpointHumidityBarometerVisibilityWind DirectionWind SpeedGust SpeedPrecipitationEventsConditions
4:30 AM55.0 °F37.0 °F39 %29.79 in6.0 miCalm
4:30 AM55.4 °F37.4 °F51 %29.95 inCalmClear
6:30 AM51.8 °F33.8 °F50 %29.98 inCalmClear
7:30 AM55.4 °F33.8 °F44 %29.98 inCalmClear
8:30 AM62.6 °F35.6 °F37 %29.98 in5.0 miCalmClear
9:30 AM71.6 °F35.6 °F27 %29.98 in5.0 miCalmClear
10:30 AM78.0 °F38.0 °F14 %29.79 in6.0 miCalm
10:30 AM77.0 °F39.2 °F26 %29.98 inCalmClear
11:30 AM80.6 °F35.6 °F20 %29.95 inCalmClear
12:30 PM84.2 °F32.0 °F15 %29.95 inCalmClear
1:30 PM84.2 °F32.0 °F15 %29.92 inCalmClear
2:30 PM84.2 °F33.8 °F16 %29.92 inCalmClear
4:30 PM87.0 °F23.0 °F4 %29.73 in6.0 miCalm
4:30 PM87.8 °F23.0 °F9 %29.89 inCalmClear
5:30 PM86.0 °F30.2 °F13 %29.89 inCalmClear
6:30 PM84.2 °F26.6 °F12 %29.89 inNW (310°)9.2 mphClear
7:30 PM82.4 °F30.2 °F15 %29.89 inWNW (300°)9.2 mphClear
8:30 PM78.8 °F30.2 °F17 %29.89 inWNW (300°)6.9 mphClear
9:30 PM77.0 °F35.6 °F22 %29.89 inCalmClear
10:30 PM72.0 °F35.0 °F16 %29.71 in6.0 miESE (120°)6.7 mph
10:30 PM71.6 °F35.6 °F27 %29.89 inESE (120°)6.9 mphClear
Hourly data recorded from 40723, located miles away from Bojnurd, Iran







STORIES FROM OUR PARTNERS